Voltar ao catálogo

BREEZE-M R/B

AtivoHEO
NORAD 37799·ROCKET BODY·🇷🇺 Russia

Lançado Aug 17, 2011 de Baikonur Cosmodrome

Loading…

Próximas Passagens (próximas 24 horas)

TLE

AtualizadoSource: Space-Track

Época: Sep 13, 2026, 20:33 UTC

1 37799U 11045B   26256.85639618 -.00000054  00000-0  00000+0 0  9992
2 37799  51.2790  73.3235 5576262  38.4518 350.4735  3.90437062214981

Acompanhe BREEZE-M R/B em tempo real com AllMySat

Download on the App Store